Location: Campestrin
(46.4667°N, 11.7167°E)
Time: 11:17:48
(UTC+00:00)

Cosmos 2297 Rocket - Pass Details

Date: 18 April 2021
Orbit: 838 x 844 km, 71.0° (Epoch: 06 May)

Event Time Altitude Azimuth Distance (km) Brightness Sun altitude
Exits shadow 21:43:43 - 242° (WSW) 2,781 4.9 -29.1°
Reaches altitude 10° 21:44:41 10° 247° (WSW) 2,455 4.6 -29.1°
Maximum altitude 21:49:41 32° 309° (NW) 1,425 3.8 -29.5°
Drops below altitude 10° 21:54:42 10° 12° (NNE) 2,471 5.3 -29.8°
Sets 21:57:27 0° 22° (NNE) 3,411 6.0 -30.0°
